Weather History for El Centro, CA

Change the Weather History Date:

Tuesday, October 14, 2014

  Actual Average Record
Temperature  
Mean Temperature 76 °F -  
Max Temperature 95 °F 90 °F 100 °F (1999)
Min Temperature 59 °F 62 °F 54 °F (2013)
Cooling Degree Days 11    
Growing Degree Days 26 (Base 50)    
Moisture  
Dew Point 29 °F    
Average Humidity 19    
Maximum Humidity 38    
Minimum Humidity 8    
Precipitation  
Precipitation 0.00 in - - ()
Sea Level Pressure  
Sea Level Pressure 29.92 in    
Wind  
Wind Speed 5 mph (WSW)    
Max Wind Speed 10 mph    
Max Gust Speed -    
Visibility 10 miles    
Events      
Averages and records for this station are not official NWS values.
T = Trace of Precipitation, MM = Missing Value Source: NWS Daily Summary

Daily Weather History Graph

Daily Weather History Graph

Search for Another Location

Airport:

Trip Planner

Search our weather history database for the weather conditions in past years. The results will help you decide how hot, cold, wet, or windy it might be!

Date:

Astronomy

Oct. 14, 2014 Rise Set
Actual Time 6:46 AM PDT 6:10 PM PDT
Civil Twilight 6:21 AM PDT 6:35 PM PDT
Nautical Twilight 5:52 AM PDT 7:04 PM PDT
Astronomical Twilight 5:24 AM PDT 7:32 PM PDT
Moon 11:28 PM PDT (10/14) 12:40 PM PDT (10/14)
Length of Visible Light 12h 14m
Length of Day
11h 24m
Waning Gibbous, 60% of the Moon is Illuminated
Oct 14
Waning Gibbous
Oct 15
Last Quarter
Oct 23
New
Oct 30
First Quarter
Nov 6
Full

Hourly Weather History & Observations

Time (PDT) Temp. Dew Point Humidity Pressure Visibility Wind Dir Wind Speed Gust Speed Precip Events Conditions
12:56 AM 64.9 °F 21.9 °F 19% 29.97 in 10.0 mi West 6.9 mph - N/A   Clear
1:56 AM 63.0 °F 23.0 °F 22% 29.97 in 10.0 mi West 6.9 mph - N/A   Clear
2:56 AM 62.1 °F 21.9 °F 21% 29.96 in 10.0 mi West 9.2 mph - N/A   Clear
3:56 AM 63.0 °F 24.1 °F 23% 29.96 in 10.0 mi West 5.8 mph - N/A   Clear
4:56 AM 63.0 °F 19.9 °F 19% 29.95 in 10.0 mi West 4.6 mph - N/A   Clear
5:56 AM 61.0 °F 21.9 °F 22% 29.97 in 10.0 mi WSW 9.2 mph - N/A   Clear
6:56 AM 59.0 °F 25.0 °F 27% 29.98 in 10.0 mi WSW 4.6 mph - N/A   Clear
7:56 AM 66.0 °F 21.0 °F 18% 29.99 in 10.0 mi SW 4.6 mph - N/A   Clear
8:56 AM 73.0 °F 32.0 °F 22% 30.00 in 10.0 mi West 4.6 mph - N/A   Clear
9:56 AM 82.0 °F 42.1 °F 24% 29.99 in 10.0 mi Calm Calm - N/A   Clear
10:56 AM 86.0 °F 37.0 °F 18% 29.97 in 10.0 mi Calm Calm - N/A   Clear
11:56 AM 88.0 °F 27.0 °F 11% 29.96 in 10.0 mi Variable 4.6 mph - N/A   Partly Cloudy
12:56 PM 91.9 °F 28.0 °F 10% 29.94 in 10.0 mi Calm Calm - N/A   Partly Cloudy
1:56 PM 91.9 °F 23.0 °F 8% 29.90 in 10.0 mi Calm Calm - N/A   Partly Cloudy
2:56 PM 93.0 °F 26.1 °F 9% 29.88 in 10.0 mi East 4.6 mph - N/A   Partly Cloudy
3:56 PM 93.9 °F 23.0 °F 8% 29.86 in 10.0 mi Calm Calm - N/A   Partly Cloudy
4:56 PM 93.0 °F 23.0 °F 8% 29.85 in 10.0 mi ESE 3.5 mph - N/A   Partly Cloudy
5:56 PM 89.1 °F 28.0 °F 11% 29.83 in 10.0 mi NE 4.6 mph - N/A   Partly Cloudy
6:56 PM 84.9 °F 28.0 °F 13% 29.84 in 10.0 mi ESE 3.5 mph - N/A   Partly Cloudy
7:56 PM 80.1 °F 34.0 °F 19% 29.86 in 10.0 mi Calm Calm - N/A   Scattered Clouds
8:56 PM 75.9 °F 33.1 °F 21% 29.87 in 10.0 mi West 8.1 mph - N/A   Scattered Clouds
9:56 PM 78.1 °F 42.1 °F 28% 29.87 in 10.0 mi SW 9.2 mph - N/A   Scattered Clouds
10:56 PM 77.0 °F 46.0 °F 33% 29.86 in 10.0 mi WSW 10.4 mph - N/A   Mostly Cloudy
11:56 PM 73.0 °F 46.0 °F 38% 29.86 in 10.0 mi WSW 5.8 mph - N/A   Clear